Location: Staunton
(38.1490°N, 79.0720°W)
Time: 09:29:06
(UTC-04:00)

ISS - Pass Details

Date: 05 August 2021
Orbit: 419 x 423 km, 51.6° (Epoch: 21 September)

Event Time Altitude Azimuth Distance (km) Brightness Sun altitude
Rises 20:52:46 0° 299° (WNW) 2,374 2.9 -6.5°
Reaches altitude 10° 20:55:04 10° 287° (WNW) 1,505 0.7 -6.9°
Maximum altitude 20:57:58 27° 228° (SW) 849 -2.0 -7.4°
Drops below altitude 10° 21:00:51 10° 168° (SSE) 1,493 -1.3 -7.9°
Enters shadow 21:02:02 - 160° (SSE) 1,928 -0.8 -8.1°
